Location: Tel Aviv
(32.0670°N, 34.7670°E)
Time: 02:40:59
(UTC+03:00)

Tiros 1 - Pass Details

Date: 25 January 2022
Orbit: 629 x 663 km, 48.4° (Epoch: 26 May)

Event Time Altitude Azimuth Distance (km) Brightness Sun altitude
Rises 00:45:08 0° 299° (WNW) 2,991 - -72.5°
Reaches altitude 10° 00:49:14 10° 333° (NNW) 2,074 - -71.9°
Maximum altitude 00:50:48 11° 352° (N) 1,976 - -71.6°
Drops below altitude 10° 00:52:23 10° 12° (NNE) 2,070 - -71.4°
Sets 00:56:28 0° 46° (NE) 2,973 - -70.7°
